www.pogodaiklimat.ru

Погода и климат >> Архив погоды >> Украина >> Ильичевск


ПОГОДА в Ильичевске

  • Прогноз погоды в Ильичевске
  • Монитор погоды в Ильичевске

АРХИВ ПОГОДЫ в Ильичевске

Время (UTC), дата Ветер
(напр.,м/с)
 
Видим.   Явления Облачность Т
(С)
Тd
(С)
f
(%)
Тe
(С)
Тes
(С)
Комфортность P
(гПа)
Po
(гПа)
Тmin
(С)
Tmax
(С)
R
(мм)
R24
(мм)
S
(см)
18 14.09 С 5 30 км 9/0
[Ac As]
+21.7 +12.3 55 +24 +24 комфорт 1023.7 1021.4 +27.1
21 14.09 СЗ 4 30 км 1/0
[Ac lent]
+17.9 +4.1 40 +18 +18 1025.5 1023.2
00 15.09 СЗ 3 30 км ясно +14.3 +4.3 51 +14 +14 1026.1 1023.8
03 15.09 СЗ 4 27 км 1/0
[Ci fib]
+12.8 +3.7 54 +11 +11 1026.3 1024.0
06 15.09 С 3 50 км 6/0
[Ci fib]
+15.4 +4.5 48 +15 +17 1027.2 1024.9 +12.3
09 15.09 В 5 50 км 3/0
[Ci fib]
+20.8 +4.4 34 +21 +26 комфорт 1027.2 1024.9
12 15.09 ЮВ 2 50 км 3/0
[Ci fib]
+21.9 +4.5 32 +22 +30 комфорт 1025.1 1022.8
15 15.09 Ю 4 50 км 3/0
[Ci fib]
+20.0 +6.0 40 +21 +21 комфорт 1023.9 1021.6
18 15.09 Ю 5 50 км ясно +19.6 +7.0 44 +20 +20 1023.6 1021.3 +22.7
21 15.09 ЮЗ 2 50 км ясно +16.9 +7.3 53 +17 +17 1021.9 1019.6
00 16.09 З 2 20 км ясно +16.4 +8.1 58 +17 +17 1020.4 1018.1
03 16.09 ЮЗ 2 10 км ясно +16.5 +8.7 60 +17 +17 1019.0 1016.7
06 16.09 ЮЗ 2 30 км ясно +19.5 +9.4 52 +21 +24 комфорт 1017.9 1015.6 +16.3
09 16.09 Ю 5 40 км ясно +22.4 +10.9 48 +24 +30 комфорт 1016.8 1014.6
12 16.09 З 3 50 км ясно +27.0 +5.3 25 +26 +33 жарко 1014.5 1012.3
15 16.09 Ю 4 40 км ясно +22.0 +14.7 63 +25 +26 комфорт 1014.4 1012.2
18 16.09 ЮЗ 3 30 км ясно +21.2 +14.4 65 +24 +24 комфорт 1013.2 1011.0 +27.3
21 16.09 З 4 35 км ясно +20.6 +10.1 51 +22 +22 комфорт 1013.0 1010.8
00 17.09 З 2 40 км ясно +20.1 +7.1 43 +22 +22 комфорт 1011.8 1009.6
03 17.09 З 3 25 км 3/3 600 м
[Sc diur, vesp]
+19.3 +8.6 50 +20 +20 1010.5 1008.3
06 17.09 СЗ 5 27 км 8/0
[Ac trans Ci fib]
+20.0 +6.4 41 +21 +22 комфорт 1011.6 1009.4 +18.0
09 17.09 С 3 23 км 10/0
[Cs]
+21.1 +10.0 49 +23 +29 комфорт 1012.6 1010.4
12 17.09 С 2 20 км 8/0
[Ac trans Ci fib]
+21.9 +11.0 50 +24 +29 комфорт 1011.8 1009.6
15 17.09 СЗ 2 22 км 8/0
[Ac trans Ci fib]
+21.9 +10.4 48 +24 +24 комфорт 1011.3 1009.1
18 17.09 ЮЗ 1 25 км 10/0
[Ac und]
+20.3 +10.7 54 +23 +23 комфорт 1011.4 1009.2 +23.8
21 17.09 ЮЗ 1 30 км 8/3 600 м
[Sc Ac und]
+20.2 +14.3 69 +24 +24 комфорт 1010.7 1008.5
00 18.09 ЮЗ 1 20 км {ливн. осадки} 8/3 600 м
[Sc Ac und]
+19.4 +15.7 79 +22 +22 комфорт 1008.8 1006.6
06 18.09 СЗ 4 30 км 9/3 600 м
[Cb cap Ac As]
+17.5 +10.9 65 +17 +18 1009.6 1007.3 +16.9 0.0
09 18.09 СЗ 4 45 км 9/6 800 м
[Cb cap Ac trans]
+18.1 +6.6 47 +18 +19 1011.9 1009.6
12 18.09 СЗ 8 45 км 8/4 600 м
[Cb cap Ac trans]
+17.4 +1.8 35 +16 +17 1014.2 1011.9
15 18.09 СЗ 8 45 км 1/0
[Ac lent]
+18.0 +0.6 31 +17 +17 1015.6 1013.3
18 18.09 СЗ 5 45 км ясно +15.8 -0.8 32 +15 +15 1018.4 1016.1 +19.0
21 18.09 С 3 45 км 3/0
[Ci fib]
+13.5 +1.5 44 +13 +13 1020.3 1018.0
00 19.09 СЗ 1 50 км 1/0
[Ci fib]
+11.6 +1.3 49 +12 +12 1021.5 1019.2
06 19.09 СЗ 3 50 км ясно +13.1 +2.1 47 +12 +14 1023.4 1021.1 +9.8
12 19.09 СЗ 3 50 км 6/3 600 м
[Cu med, cong Cc]
+19.1 -0.3 27 +19 +24 1022.3 1020.0
18 19.09 З 2 20 км 6/6 800 м
[Sc]
+15.9 +4.3 46 +16 +16 1021.3 1019.0 +19.3
00 20.09 С 3 50 км 8/8 700 м
[Sc]
+12.1 +4.3 59 +11 +11 1020.8 1018.5
06 20.09 СЗ 3 25 км 8/0
[Ac trans]
+12.0 +2.7 53 +11 +12 1020.7 1018.4 +11.3
12 20.09 С 5 40 км в посл. час ливневой дождь 8/5 600 м
[Cb calv Ac trans Ci]
+14.8 +3.3 46 +14 +15 1019.9 1017.6
18 20.09 СЗ 2 30 км {ливн. осадки} 5/0
[Ac trans]
+12.0 +2.5 52 +11 +11 1021.8 1019.5 +17.5 0.0
00 21.09 СЗ 4 20 км ясно +7.7 +1.3 64 +5 +5 1023.1 1020.7
06 21.09 СЗ 4 30 км ясно +8.7 +2.1 63 +6 +8 1025.3 1022.9 +5.7

 

Местоположение метеостанции Ильичевск (Одесская область, Украина): широта 46.40 долгота 30.70 высота над уровнем моря 52 м.

В архиве по умолчанию представлена погода в Ильичевске за последнюю неделю. Архивные данные за месяц целиком и за предыдущие месяцы, начиная с января 2011 года, Вы можете получить, выбрав интересующий диапазон дат из раскрывающегося списка и нажав кнопку "Ввод!".


*Определитесь, кто Вы:
робот инопланетянин человек

Внимание! Время в таблицах - всемирное. Для получения местного времени необходимо прибавить поправку, которая равна 2 ч.

Смотрите также архив погоды в соседних городах и на ближайших метеорологических станциях:

Погода в Одессе (Одесская область, Украина) (6 км)
Погода в Белгород-Днестровском (Одесская область, Украина) (35 км)
Погода в Раздельной (Одесская область, Украина) (69 км)
Погода в Сербке (Одесская область, Украина) (69 км)
Погода в Заставе (Одесская область, Украина) (70 км)
Погода в Очакове (Николаевская область, Украина) (70 км)
Погода в Сарате (Одесская область, Украина) (90 км)
Погода в Штефан Водэ (Молдова) (94 км)
Погода в Тирасполе (Молдова) (101 км)
Погода в Вилково (Одесская область, Украина) (108 км)

Пояснения к столбцам:

Ветер - указаны скорость ветра в м/с - средняя за 10 мин, порывы в срок и между сроками (в фигурных скобках) и направление, откуда дует ветер: С - северный, СВ - северо-восточный, В - восточный, ЮВ - юго-восточный, Ю - южный, ЮЗ - юго-западный, З - западный, СЗ - северо-западный.
Видимость - горизонтальная дальность видимости в метрах или километрах. При видимости от 1 до 10 км при отсутствии осадков обычно наблюдается дымка, при ухудшении видимости до 1 км и менее - туман. В сухую погоду видимость может ухудшаться дымом, пылью или мглою.
Явления - указаны атмосферные явления, наблюдавшиеся в срок или в последний час перед сроком; фигурными скобками обозначены явления, наблюдавшиеся между сроками (за 1-3 часа до срока); квадратными скобками обозначены град или гололедные отложения с указанием их диаметра в мм.
Облачность - указаны через наклонную черту общая и нижняя облачность в баллах и высота нижней границы облаков в метрах; квадратными скобками обозначены формы облаков: Ci - перистые, Cs - перисто-слоистые, Cc - перисто-кучевые, Ac - высококучевые, As - высокослоистые, Sc - слоисто-кучевые, Ns - слоисто-дождевые, Cu - кучевые, Cb - кучево-дождевые. Подробнее классификацию облаков см. в Атласе облаков (PDF).
T - Температура воздуха - температура, измеренная на высоте 2 м над землей.
Td - Температура точки росы - температура, при понижении до которой содержащийся в воздухе водяной пар достигнет насыщения.
f - Относительная влажность воздуха - влажноcть воздуха, измеренная на высоте 2 м над землей.
Te - Эффективная температура - температура, которую ощущает одетый по сезону человек в тени. Характеристика душности погоды. При расчете учитывается влияние влажности воздуха и скорости ветра на теплоощущения человека.
Tes - Эффективная температура на солнце - температура, которую ощущает человек, с поправкой на солнечный нагрев. Характеристика знойности погоды. Зависит от высоты солнца над горизонтом, облачности и скорости ветра. Ночью, в пасмурную погоду, а также при ветре 12 м/с и более поправка равна нулю.
P - Атмосферное давление - приведенное к уровню моря атмосферное давление.
Po - Атмосферное давление - измеренное на уровне метеостанции атмосферное давление.
Tmin - Минимальная температура - минимум температуры воздуха на высоте 2 м над землей.
Tmax - Максимальная температура - максимум температуры воздуха на высоте 2 м над землей.
R - Количество осадков - Количество выпавших осадков за период времени, мм. При наведении курсора мыши на число - период времени, за который выпало указанное количество осадков.
R24 - Количество осадков - Количество выпавших осадков за 24 часа, мм.
S - Снежный покров - Высота снежного покрова, см. При наведении курсора мыши на число - состояние снежного покрова и степень покрытия местности в баллах.